Corpus Christi, TX

10:56 AM CDT on July 23, 2017 (GMT -0500)
Corpus Christi International

Weather History for KCRP - May, 2014

Change the Weather History Date:

Monday, May 26, 2014

  Actual Average Record
Temperature  
Mean Temperature 83 °F 80 °F  
Max Temperature 90 °F 88 °F 97 °F (1928)
Min Temperature 76 °F 72 °F 61 °F (1947)
Degree Days  
Heating Degree Days 0 0  
Month to date heating degree days 0 0  
Since 1 July heating degree days 1145 898  
Cooling Degree Days 18 15  
Month to date cooling degree days 277 336  
Year to date cooling degree days 723 764  
Growing Degree Days 32 (Base 50)    
Moisture  
Dew Point 72 °F    
Average Humidity 72    
Maximum Humidity 88    
Minimum Humidity 56    
Precipitation  
Precipitation 0.02 in 0.11 in 2.05 in (1946)
Month to date precipitation 3.83 2.52  
Year to date precipitation 6.89 9.72  
Snow  
Snow 0.00 in - - ()
Month to date snowfall 0.0  
Since 1 July snowfall T  
Snow Depth 0.00 in    
Sea Level Pressure  
Sea Level Pressure 29.96 in    
Wind  
Wind Speed 19 mph (SE)    
Max Wind Speed 29 mph    
Max Gust Speed 35 mph    
Visibility 10 miles    
Events Rain    
T = Trace of Precipitation, MM = Missing Value Source: NWS Daily Summary

Daily Weather History Graph

Daily Weather History Graph

Search for Another Location

Airport or City:

Trip Planner

Search our weather history database for the weather conditions in past years. The results will help you decide how hot, cold, wet, or windy it might be!

Date:

Astronomy

May. 26, 2014 Rise Set
Actual Time 6:35 AM CDT 8:18 PM CDT
Civil Twilight 6:09 AM CDT 8:44 PM CDT
Nautical Twilight 5:38 AM CDT 9:15 PM CDT
Astronomical Twilight 5:05 AM CDT 9:48 PM CDT
Moon 5:06 AM CDT (5/26) 6:32 PM CDT (5/26)
Length of Visible Light 14h 34m
Length of Day
13h 42m
Waning Crescent, 5% of the Moon is Illuminated
May 26
Waning Crescent
May 28
New
Jun 5
First Quarter
Jun 12
Full
Jun 19
Last Quarter

Hourly Weather History & Observations

Time (CDT) Temp. Heat Index Dew Point Humidity Pressure Visibility Wind Dir Wind Speed Gust Speed Precip Events Conditions
12:17 AM 78.1 °F - 72.0 °F 81% 29.96 in 10.0 mi SE 19.6 mph - N/A   Overcast
12:51 AM 78.1 °F - 72.0 °F 81% 29.95 in 10.0 mi SE 19.6 mph 28.8 mph N/A   Overcast
1:51 AM 78.1 °F - 73.0 °F 84% 29.97 in 10.0 mi SE 16.1 mph - N/A   Overcast
2:11 AM 78.1 °F - 73.0 °F 84% 29.97 in 10.0 mi SE 15.0 mph - N/A   Overcast
2:51 AM 78.1 °F - 73.0 °F 84% 29.96 in 10.0 mi SE 12.7 mph - 0.00 in Rain Light Rain
3:11 AM 78.8 °F - 73.4 °F 83% 29.97 in 9.0 mi SE 13.8 mph - N/A Rain Light Rain
3:51 AM 77.0 °F - 73.0 °F 88% 29.96 in 10.0 mi SE 16.1 mph - 0.00 in Rain Light Rain
4:02 AM 77.0 °F - 73.9 °F 90% 29.95 in 9.0 mi SE 13.8 mph - 0.00 in Rain Light Rain
4:16 AM 77.0 °F - 73.9 °F 90% 29.95 in 9.0 mi ESE 13.8 mph - 0.01 in Rain Light Rain
4:51 AM 77.0 °F - 73.9 °F 90% 29.95 in 9.0 mi SE 12.7 mph - 0.01 in   Overcast
5:51 AM 77.0 °F - 73.9 °F 90% 29.95 in 10.0 mi SE 16.1 mph - 0.00 in Rain Light Rain
6:03 AM 77.0 °F - 73.9 °F 90% 29.96 in 10.0 mi SE 13.8 mph - 0.00 in   Overcast
6:51 AM 77.0 °F - 73.9 °F 90% 29.96 in 8.0 mi SE 13.8 mph - 0.00 in   Overcast
7:51 AM 77.0 °F - 73.9 °F 90% 29.97 in 6.0 mi SE 18.4 mph - 0.01 in Rain Light Rain
8:04 AM 77.0 °F - 73.9 °F 90% 29.97 in 8.0 mi SSE 15.0 mph - 0.00 in Rain Light Rain
8:19 AM 77.0 °F - 73.9 °F 90% 29.98 in 8.0 mi SE 19.6 mph 27.6 mph 0.00 in   Mostly Cloudy
8:51 AM 77.0 °F - 73.9 °F 90% 29.98 in 9.0 mi SE 19.6 mph - 0.00 in   Mostly Cloudy
9:51 AM 80.1 °F 84.5 °F 73.9 °F 81% 29.98 in 10.0 mi SSE 24.2 mph 29.9 mph N/A   Mostly Cloudy
10:51 AM 82.9 °F 88.0 °F 72.0 °F 69% 29.98 in 10.0 mi SSE 25.3 mph 34.5 mph N/A   Mostly Cloudy
11:51 AM 84.9 °F 90.7 °F 72.0 °F 65% 29.99 in 10.0 mi SSE 21.9 mph 33.4 mph N/A   Mostly Cloudy
12:51 PM 84.9 °F 90.7 °F 72.0 °F 65% 29.98 in 10.0 mi SSE 18.4 mph 27.6 mph N/A   Mostly Cloudy
1:51 PM 87.8 °F 93.8 °F 71.6 °F 58% 29.97 in 10.0 mi SE 20.7 mph - N/A   Mostly Cloudy
2:51 PM 90.0 °F 96.4 °F 71.1 °F 54% 29.95 in 10.0 mi SSE 24.2 mph 31.1 mph N/A   Mostly Cloudy
3:51 PM 86.0 °F 90.7 °F 70.0 °F 59% 29.93 in 10.0 mi SE 21.9 mph 28.8 mph N/A   Mostly Cloudy
4:51 PM 84.0 °F 89.0 °F 71.1 °F 65% 29.93 in 10.0 mi ESE 23.0 mph - N/A   Mostly Cloudy
5:51 PM 81.0 °F 84.9 °F 71.1 °F 72% 29.94 in 10.0 mi East 21.9 mph - N/A   Mostly Cloudy
5:56 PM 81.0 °F 84.9 °F 71.1 °F 72% 29.95 in 10.0 mi East 23.0 mph 27.6 mph N/A   Overcast
6:28 PM 75.9 °F - 68.0 °F 76% 29.95 in 10.0 mi ENE 21.9 mph 31.1 mph N/A   Overcast
6:46 PM 77.0 °F - 66.2 °F 69% 29.94 in 10.0 mi ENE 25.3 mph 31.1 mph N/A   Mostly Cloudy
6:51 PM 77.0 °F - 66.9 °F 71% 29.93 in 10.0 mi East 23.0 mph 32.2 mph N/A   Mostly Cloudy
7:15 PM 77.0 °F - 69.1 °F 76% 29.92 in 10.0 mi East 24.2 mph - N/A   Mostly Cloudy
7:51 PM 78.1 °F - 71.1 °F 79% 29.93 in 10.0 mi East 16.1 mph 25.3 mph N/A   Overcast
8:31 PM 77.0 °F - 72.0 °F 84% 29.93 in 10.0 mi ESE 17.3 mph - N/A   Overcast
8:51 PM 78.1 °F - 72.0 °F 81% 29.93 in 10.0 mi East 17.3 mph - N/A   Overcast
9:51 PM 78.1 °F - 73.0 °F 84% 29.95 in 10.0 mi ESE 13.8 mph - N/A   Overcast
10:51 PM 79.0 °F - 73.0 °F 82% 29.97 in 10.0 mi SE 15.0 mph - N/A   Overcast
11:51 PM 79.0 °F - 73.9 °F 84% 29.96 in 10.0 mi SSE 18.4 mph - N/A   Overcast